Find Kuiper-00102

NORAD ID: 65140 Int'l Des: 2025-171 Owner: KUIP Country: US Constellation: amazon-leo operational
LEOCIRCULAR

現在のビュー

3D地球を読み込み中...

Kuiper-00102について

説明を読み込み中...

次回通過

Passes for default location (London). Set your location on the main map for personalized predictions.

高度履歴

Loading altitude history...

軌道要素

1 65140U 25171J 26159.17278435 .00003283 00000-0 45941-3 0 9994
2 65140 51.8972 112.9460 0000689 84.8355 275.2686 14.79933768 46350
Epoch: Jun 8, 2026 • Age: 4 hours

現在のステータス

高度 630.9 km
速度 7.55 km/s
衛星直下点 30.32°N, 111.91°W
打ち上げ日 Aug 11, 2025
運用期間 0.8 years
タイプ internet

技術仕様

分類 Payload
質量 490.00 kg
乾燥質量 490.00 kg
総質量 490.00 kg
長さ 1.80 m
直径 0.70 m
スパン 5.00 m
形状 Box + 2 pan
製造者 KUIP
バスタイプ Kuiper
フェーズステータス In Orbit
所有者/国 KUIP/US

Most Searched